Torna al catalogo

GALILEO 29

10C

AttivoNavigazioneMEO
NORAD 59598·PAYLOAD·🇪🇺 EU

Lanciato Apr 28, 2024 da Cape Canaveral Space Force Station

Loading…

Prossimi Passaggi (prossime 24 ore)

TLE

AggiornatoSource: CelesTrak SupGP

Epoca: Sep 13, 2026, 23:59 UTC

1 59598C 24079A   26256.99979167  .00000000  00000+0  00000+0 0  2560
2 59598  55.1769  98.5965 0001501 129.9557 242.0565  1.70474423    15

Traccia GALILEO 29 in tempo reale con AllMySat

Download on the App Store